Location: Arroyo Retuerta
(40.5469°N, 4.3534°W)
Time: 05:36:51
(UTC+00:00)

USA 238 DEB - Pass Details

Date: 01 June 2020
Orbit: 1017 x 1196 km, 63.4° (Epoch: 02 June)

Event Time Altitude Azimuth Distance (km) Brightness Sun altitude
Rises 22:12:37 0° 326° (NW) 3,959 8.2 -21.0°
Reaches altitude 10° 22:15:17 10° 328° (NNW) 3,022 7.2 -21.3°
Maximum altitude 22:22:33 77° 55° (NE) 1,197 3.9 -22.0°
Enters shadow 22:25:49 37° 134° (SE) 1,740 4.3 -22.3°
